This is the latest recevied weather packets stored in our database for station/object VK4TOM-13. If no packets are shown the sender has not sent any weather packets the latest 10 day(s).
| Time | Temp. | Humidity | Pressure | Rain* | Wind** | Luminosity | Snow |
|---|---|---|---|---|---|---|---|
| 1788594974 | 26.11° C | 68% | 1017 hPa | 0 mm | - | - | - |
| 1788594373 | 26.11° C | 67% | 1016.8 hPa | 0 mm | - | - | - |
| 1788593170 | 27.22° C | 70% | 1016.7 hPa | 0 mm | - | - | - |
| 1788592569 | 27.78° C | 70% | 1016.6 hPa | 0 mm | - | - | - |
| 1788591968 | 27.78° C | 70% | 1016.5 hPa | 0 mm | - | - | - |
| 1788591367 | 28.33° C | 70% | 1016.5 hPa | 0 mm | - | - | - |
| 1788590165 | 30° C | 62% | 1016.3 hPa | 0 mm | - | - | - |
| 1788589564 | 31.11° C | 53% | 1016.2 hPa | 0 mm | - | - | - |
| 1788588963 | 31.11° C | 47% | 1016.1 hPa | 0 mm | - | - | - |
| 1788588362 | 31.11° C | 40% | 1015.9 hPa | 0 mm | - | - | - |
| 1788587761 | 31.67° C | 37% | 1015.8 hPa | 0 mm | - | - | - |
| 1788587160 | 31.67° C | 35% | 1015.9 hPa | 0 mm | - | - | - |
| 1788586245 | 31.67° C | 32% | 1015.9 hPa | 0 mm | - | - | - |
| 1788586036 | 31.67° C | 33% | 1015.9 hPa | 0 mm | - | - | - |
| 1788585436 | 32.22° C | 33% | 1016 hPa | 0 mm | - | - | - |
| 1788585148 | 32.22° C | 30% | 1016.1 hPa | 0 mm | - | - | - |
| 1788584718 | 32.22° C | 32% | 1016.1 hPa | 0 mm | - | - | - |
| 1788584452 | 32.78° C | 32% | 1016 hPa | 0 mm | - | - | - |
| 1788584234 | 32.78° C | 31% | 1016.1 hPa | 0 mm | - | - | - |
| 1788583633 | 32.78° C | 32% | 1016.2 hPa | 0 mm | - | - | - |
| 1788583032 | 32.78° C | 33% | 1016.3 hPa | 0 mm | - | - | - |
| 1788582431 | 32.78° C | 35% | 1016.4 hPa | 0 mm | - | - | - |
| 1788582251 | 32.78° C | 35% | 1016.4 hPa | 0 mm | - | - | - |
| 1788581779 | 33.33° C | 33% | 1016.5 hPa | 0 mm | - | - | - |
| 1788581178 | 33.33° C | 35% | 1016.6 hPa | 0 mm | - | - | - |
* Rain since midnight (hover to see other rain measurements)
** Current wind speed in m/s (hover to see current wind gust speed)